Location: Bucharest
(44.4268°N, 26.1025°E)
Time: 05:38:48
(UTC+03:00)

ESTCUBE 1 - Pass Details

Date: 28 June 2022
Orbit: 646 x 657 km, 97.9° (Epoch: 13 August)

Event Time Altitude Azimuth Distance (km) Brightness Sun altitude
Exits shadow 00:23:16 18° 238° (WSW) 1,574 ? -21.1°
Maximum altitude 00:24:52 22° 267° (W) 1,420 ? -21.2°
Drops below altitude 10° 00:28:20 10° 318° (NW) 2,055 ? -21.3°
Sets 00:31:01 0° 334° (NNW) 2,972 ? -21.4°
